[[{"header":{"parameterUnit":"m.s-1","parameterCategory":1,"la1":30.2991,"la2":30.254,"lo1":-89.0895,"lo2":-89.0444,"dy":0.0017,"dx":0.0017,"nx":28,"ny":28,"refTime":"2025-08-24T09:00:00:Z","depth":0,"parameterNumber":2,"parameterNumberName":"U-component_of_WINDS"},"data":[0,0,0,0,0,0,0,0,0,0,0,0,0,0,0,0,0,0,0,0,0,0,0,0,0,0,0,0,0,0,0,0,0,0,0,0,0,0,0,0,0,0,0,0,0,0,0,0,0,0,0,0,0,0,0,0,0,0,-0.1714,-0.1715,0,-0.1737,-0.1737,-0.1738,-0.1764,-0.1764,-0.1764,-0.1765,-0.1787,-0.1787,-0.1787,0,0,0,0,0,0,0,0,0,0,0,0,0,-0.1693,-0.1693,-0.1714,-0.1715,-0.1715,-0.1737,-0.1737,-0.1738,-0.1764,-0.1764,-0.1764,-0.1765,-0.1787,-0.1787,-0.1787,0,0,0,0,0,0,0,0,0,0,0,0,0,-0.1707,-0.1693,-0.1714,-0.173,-0.1732,-0.1737,-0.1737,-0.1738,-0.1763,-0.1764,-0.1765,-0.1765,-0.1787,-0.1787,-0.1787,-0.1778,0,0,-0.1789,-0.1789,0,0,0,0,0,0,0,0,-0.1707,-0.1708,-0.1728,-0.1729,-0.1731,-0.1748,-0.1738,-0.1751,-0.1763,-0.1752,-0.1765,-0.1765,-0.1774,-0.1775,-0.1778,-0.1779,-0.178,-0.1789,-0.1789,-0.1789,-0.1789,0,0,0,0,0,0,0,-0.1706,-0.1707,-0.1723,-0.1728,-0.173,-0.1737,-0.1739,-0.1741,-0.1759,-0.1753,-0.1755,-0.1757,-0.1775,-0.1778,-0.1779,-0.178,-0.1789,-0.1789,-0.1789,-0.1789,-0.1776,-0.1775,0,0,0,0,0,0,-0.1702,-0.1706,-0.1723,-0.1724,-0.172,-0.1736,-0.1739,-0.1742,-0.1759,-0.1762,-0.1756,-0.1758,-0.1777,-0.1778,-0.178,-0.177,-0.1789,-0.1789,-0.1789,-0.1776,-0.1775,-0.1775,0,0,0,0,0,0,-0.1702,-0.1703,-0.1722,-0.1716,-0.1719,-0.1736,-0.1739,-0.1742,-0.1745,-0.1762,-0.1765,-0.1756,-0.1777,-0.1779,-0.1778,-0.1771,-0.1789,-0.179,-0.1777,-0.1776,-0.1775,-0.1751,0,0,0,0,0,0,-0.1701,-0.1703,-0.17,-0.1716,-0.1719,-0.172,-0.1738,-0.1742,-0.1746,-0.1748,-0.1763,-0.1765,-0.1778,-0.1778,-0.1779,-0.1772,-0.179,-0.1778,-0.1776,-0.1775,-0.1752,-0.1749,-0.1747,0,0,0,0,0,-0.17,-0.1691,-0.1699,-0.1701,-0.1715,-0.172,-0.1722,-0.1736,-0.1745,-0.1742,-0.1753,-0.1765,-0.1772,-0.1778,-0.1779,-0.1772,-0.1778,-0.1777,-0.1776,-0.1754,-0.175,-0.1747,0,0,0,0,0,0,-0.1673,-0.1694,-0.1703,-0.1699,-0.1708,-0.1724,-0.172,-0.1732,-0.1738,-0.174,-0.1757,-0.176,-0.1758,-0.1765,-0.1771,-0.1764,-0.1777,-0.1776,-0.176,-0.1756,-0.1753,-0.1752,-0.179,0,0,0,0,0,-0.1667,-0.167,-0.1687,-0.1682,-0.1686,-0.1702,-0.1705,-0.1716,-0.1725,-0.1729,-0.174,-0.1748,-0.1752,-0.1755,-0.1759,-0.1754,-0.1757,-0.175,-0.1747,-0.1744,-0.1743,-0.1741,-0.1738,-0.1771,-0.1771,-0.1771,0,0,-0.1654,-0.1666,-0.1666,-0.1677,-0.1685,-0.1687,-0.1705,-0.1707,-0.1708,-0.1729,-0.1729,-0.1738,-0.1748,-0.1745,-0.1744,-0.1751,-0.1735,-0.1743,-0.1741,-0.1741,-0.174,-0.1737,-0.1734,-0.177,-0.177,-0.177,0,0,-0.1632,-0.1641,-0.1638,-0.1646,-0.1658,-0.1669,-0.1668,-0.1683,-0.169,-0.169,-0.1706,-0.1708,-0.1715,-0.1722,-0.1727,-0.1708,-0.172,-0.1709,-0.1694,-0.1692,-0.169,-0.1687,-0.1681,-0.1679,-0.1708,-0.1708,-0.1708,0,-0.1614,-0.1618,-0.1635,-0.1636,-0.164,-0.166,-0.1657,-0.1664,-0.1676,-0.1679,-0.1687,-0.1696,-0.1704,-0.1704,-0.1699,-0.1702,-0.1702,-0.1708,-0.1689,-0.1687,-0.1685,-0.1679,-0.1677,-0.1707,-0.1707,-0.1707,-0.1707,0,-0.1596,-0.1599,-0.1595,-0.1608,-0.1612,-0.1611,-0.1627,-0.163,-0.164,-0.165,-0.1651,-0.1662,-0.167,-0.1671,-0.168,-0.1671,-0.1675,-0.1685,-0.1698,-0.168,-0.1675,-0.1673,-0.1705,-0.1705,-0.1706,-0.1706,0,0,-0.1557,-0.158,-0.1578,-0.1585,-0.16,-0.1602,-0.1602,-0.161,-0.1612,-0.162,-0.1621,-0.1626,-0.1636,-0.1641,-0.1652,-0.165,-0.1636,-0.1661,-0.1662,-0.1656,-0.1627,-0.1619,-0.1617,-0.1644,-0.1643,-0.1643,-0.1626,0,-0.1538,-0.154,-0.1555,-0.1552,-0.1555,-0.1574,-0.1574,-0.1583,-0.1593,-0.1597,-0.1608,-0.1612,-0.1624,-0.1627,-0.1627,-0.1638,-0.163,-0.1639,-0.1644,-0.1644,-0.1641,-0.1614,-0.1606,-0.1589,-0.1624,-0.1624,-0.1624,0,-0.1516,-0.1523,-0.1521,-0.1537,-0.1539,-0.1539,-0.1548,-0.1551,-0.1562,-0.1569,-0.1576,-0.1588,-0.159,-0.1602,-0.1604,-0.161,-0.1613,-0.1619,-0.1619,-0.162,-0.1633,-0.1614,-0.1584,-0.1582,-0.1621,-0.1621,-0.1621,0,-0.1488,-0.1498,-0.1498,-0.1503,-0.1521,-0.1521,-0.1528,-0.154,-0.1544,-0.1552,-0.1555,-0.1562,-0.1566,-0.1572,-0.1587,-0.1594,-0.1587,-0.1601,-0.1593,-0.1593,-0.1591,-0.1591,-0.1561,-0.1593,-0.1593,-0.1593,-0.1593,0,-0.1465,-0.1463,-0.1486,-0.1486,-0.1485,-0.1502,-0.15,-0.151,-0.152,-0.1522,-0.1539,-0.154,-0.1559,-0.1563,-0.1575,-0.1575,-0.1576,-0.1582,-0.1586,-0.1581,-0.158,-0.1583,-0.1585,-0.1592,-0.1592,-0.1592,-0.1592,0,-0.1434,-0.1449,-0.1451,-0.1469,-0.1473,-0.1471,-0.1486,-0.1487,-0.1498,-0.1501,-0.1502,-0.152,-0.1525,-0.154,-0.1549,-0.1557,-0.1554,-0.156,-0.1551,-0.1553,-0.1545,-0.1545,-0.1516,-0.1513,-0.1546,-0.1546,-0.1545,0,-0.1418,-0.1418,-0.1435,-0.1438,-0.1445,-0.145,-0.1454,-0.1472,-0.1476,-0.1489,-0.1488,-0.1495,-0.1501,-0.1509,-0.1523,-0.153,-0.1536,-0.1525,-0.1537,-0.1533,-0.1536,-0.1536,-0.1536,-0.1522,-0.1522,-0.1522,-0.1521,0,-0.1389,-0.1397,-0.1403,-0.1412,-0.1417,-0.1425,-0.1434,-0.1435,-0.1454,-0.1458,-0.1464,-0.1469,-0.1479,-0.1486,-0.1495,-0.1503,-0.1515,-0.1518,-0.1516,-0.1512,-0.1507,-0.151,-0.1544,-0.1518,-0.1518,-0.1519,-0.1519,-0.1519,-0.1366,-0.1366,-0.1379,-0.1385,-0.1394,-0.1402,-0.1404,-0.1415,-0.1421,-0.143,-0.144,-0.1445,-0.1457,-0.1471,-0.1478,-0.1482,-0.1489,-0.1487,-0.1486,-0.1486,-0.1484,-0.1506,-0.1484,-0.1484,-0.1484,-0.1484,-0.1484,0,-0.1338,-0.1347,-0.1353,-0.1365,-0.137,-0.1382,-0.1392,-0.1395,-0.14,-0.141,-0.1416,-0.1423,-0.143,-0.1444,-0.1452,-0.1453,-0.1459,-0.1455,-0.1455,-0.1456,-0.1477,-0.1478,-0.145,-0.145,-0.145,-0.145,-0.145,-0.145,-0.1324,-0.1325,-0.1335,-0.1341,-0.135,-0.1356,-0.1361,-0.1368,-0.1376,-0.1384,-0.139,-0.1399,-0.1411,-0.142,-0.1426,-0.143,-0.1433,-0.1427,-0.1432,-0.1452,-0.1455,-0.1458,-0.1459,-0.1427,-0.1427,-0.1411,-0.1411,-0.1411]},{"header":{"parameterUnit":"m.s-1","parameterCategory":1,"la1":30.2991,"la2":30.254,"lo1":-89.0895,"lo2":-89.0444,"dy":0.0017,"dx":0.0017,"nx":28,"ny":28,"refTime":"2025-08-24T09:00:00:Z","depth":0,"parameterNumber":3,"parameterNumberName":"V-component_of_WINDS"},"data":[0,0,0,0,0,0,0,0,0,0,0,0,0,0,0,0,0,0,0,0,0,0,0,0,0,0,0,0,0,0,0,0,0,0,0,0,0,0,0,0,0,0,0,0,0,0,0,0,0,0,0,0,0,0,0,0,0,0,0.9871,0.9871,0,0.9838,0.9838,0.9837,0.9778,0.9777,0.9776,0.9775,0.9741,0.9741,0.9741,0,0,0,0,0,0,0,0,0,0,0,0,0,0.9883,0.9883,0.9872,0.9871,0.9871,0.9838,0.9838,0.9837,0.9778,0.9777,0.9775,0.9774,0.9741,0.9741,0.9741,0,0,0,0,0,0,0,0,0,0,0,0,0,0.9867,0.9883,0.9872,0.9837,0.9834,0.9838,0.9838,0.9837,0.9778,0.9777,0.9775,0.9773,0.9741,0.9741,0.9741,0.9777,0,0,0.9742,0.9742,0,0,0,0,0,0,0,0,0.9868,0.9867,0.9843,0.984,0.9836,0.981,0.983,0.9817,0.9779,0.9799,0.9775,0.9773,0.9766,0.9764,0.9761,0.9776,0.9774,0.9742,0.9742,0.9743,0.9743,0,0,0,0,0,0,0,0.9869,0.9868,0.9858,0.9842,0.9838,0.9823,0.9819,0.9827,0.9793,0.9798,0.9793,0.979,0.9763,0.9761,0.976,0.9774,0.9742,0.9742,0.9743,0.9743,0.9814,0.9815,0,0,0,0,0,0,0.9875,0.9869,0.9859,0.9857,0.9848,0.9824,0.982,0.982,0.9792,0.9786,0.9791,0.9787,0.9762,0.976,0.9759,0.9797,0.9743,0.9743,0.9743,0.9812,0.9814,0.9816,0,0,0,0,0,0,0.9876,0.9875,0.9861,0.9862,0.9859,0.9826,0.9827,0.9821,0.9818,0.9788,0.9781,0.9795,0.976,0.9758,0.9773,0.9795,0.9743,0.9743,0.981,0.9813,0.9815,0.9876,0,0,0,0,0,0,0.9876,0.9876,0.9889,0.9863,0.9859,0.9876,0.9829,0.9821,0.9819,0.9813,0.979,0.9784,0.9759,0.9772,0.9773,0.9795,0.9743,0.9808,0.9811,0.9814,0.9872,0.988,0.9888,0,0,0,0,0,0.9877,0.9908,0.989,0.9889,0.9875,0.9877,0.9875,0.9845,0.9821,0.9834,0.9814,0.9785,0.9793,0.9774,0.9774,0.9797,0.9806,0.981,0.9814,0.9868,0.9879,0.9887,0,0,0,0,0,0,0.9938,0.9904,0.9884,0.9907,0.9895,0.9867,0.9882,0.9857,0.9852,0.9847,0.981,0.9805,0.9824,0.9812,0.9792,0.9829,0.9795,0.9799,0.9836,0.9846,0.9854,0.9856,0.9743,0,0,0,0,0,0.9954,0.9959,0.9928,0.9952,0.9947,0.9916,0.9916,0.9893,0.988,0.9875,0.9856,0.9844,0.9843,0.9844,0.9842,0.987,0.9863,0.9885,0.9893,0.9899,0.9903,0.9916,0.9925,0.9829,0.9829,0.9829,0,0,0.9988,0.997,0.9975,0.9964,0.9952,0.9957,0.9912,0.992,0.9923,0.9876,0.9888,0.9874,0.9858,0.9878,0.9887,0.9869,0.9928,0.9904,0.991,0.991,0.9921,0.993,0.9938,0.9832,0.9831,0.9831,0,0,1.0051,1.0038,1.0056,1.0045,1.0027,1.0006,1.001,0.9986,0.9974,0.9986,0.995,0.9953,0.9954,0.9943,0.9938,0.9997,0.9969,0.9997,1.0038,1.0051,1.0058,1.0065,1.0085,1.0092,1.0001,1.0001,1.0001,0,1.0095,1.0101,1.0068,1.0077,1.0073,1.003,1.0047,1.0038,1.0021,1.0019,0.9999,0.9998,0.9984,1.0002,1.0016,1.0013,1.0016,0.9999,1.006,1.0066,1.0072,1.009,1.0098,1.0005,1.0004,1.0004,1.0004,0,1.0155,1.016,1.0176,1.016,1.0158,1.0171,1.0139,1.0141,1.0119,1.01,1.0111,1.0093,1.0086,1.0089,1.0067,1.0102,1.0092,1.0067,1.0032,1.0085,1.0101,1.0108,1.0009,1.0008,1.0007,1.0006,0,0,1.0256,1.0221,1.0227,1.0219,1.0196,1.0199,1.021,1.0203,1.0205,1.0194,1.0202,1.0203,1.0179,1.0173,1.015,1.0161,1.0207,1.0134,1.0133,1.0148,1.0244,1.0262,1.0271,1.0189,1.019,1.0191,1.0244,0,1.0314,1.033,1.03,1.0324,1.0327,1.0286,1.0295,1.0282,1.0265,1.0265,1.0245,1.0246,1.0215,1.0211,1.022,1.02,1.0226,1.0196,1.0195,1.0196,1.02,1.028,1.03,1.0351,1.0251,1.0252,1.0253,0,1.0384,1.0376,1.04,1.0374,1.0374,1.0384,1.0374,1.0375,1.0359,1.0345,1.0338,1.0311,1.0319,1.0286,1.0296,1.0276,1.0274,1.0264,1.0265,1.0264,1.0227,1.0279,1.0366,1.0374,1.0263,1.0262,1.0261,0,1.0454,1.0449,1.0462,1.0457,1.0428,1.0435,1.0423,1.0406,1.0403,1.0394,1.0392,1.0385,1.0381,1.0376,1.0347,1.0326,1.0361,1.0325,1.0349,1.035,1.0358,1.0358,1.0445,1.0358,1.0358,1.0358,1.0358,0,1.0521,1.0537,1.0493,1.0502,1.0518,1.0483,1.05,1.0484,1.0469,1.0473,1.0437,1.0441,1.0403,1.0403,1.0381,1.0392,1.0391,1.038,1.0374,1.0383,1.0384,1.0381,1.0376,1.036,1.036,1.0359,1.0359,0,1.0602,1.0573,1.0585,1.0556,1.0549,1.0563,1.0538,1.0544,1.0524,1.0529,1.0529,1.0497,1.0495,1.0466,1.0458,1.0443,1.0463,1.045,1.0468,1.0464,1.0489,1.0487,1.0577,1.0586,1.0494,1.0495,1.0496,0,1.0646,1.0657,1.0629,1.0629,1.0619,1.062,1.0616,1.0582,1.058,1.0562,1.0571,1.0566,1.056,1.0559,1.0535,1.0529,1.0515,1.0547,1.0514,1.0522,1.0515,1.0514,1.0514,1.0554,1.0555,1.0556,1.0557,0,1.0727,1.0712,1.0709,1.0701,1.0697,1.0689,1.0679,1.0681,1.0643,1.0643,1.064,1.0636,1.0627,1.0623,1.0612,1.0599,1.0572,1.0568,1.0572,1.0582,1.0591,1.0585,1.0487,1.0566,1.0565,1.0564,1.0564,1.0563,1.079,1.0798,1.0779,1.0776,1.0765,1.0756,1.0759,1.0739,1.0737,1.0727,1.0707,1.0707,1.069,1.0672,1.0662,1.0662,1.0645,1.0653,1.0655,1.0657,1.0661,1.0592,1.066,1.0659,1.0659,1.0659,1.0659,0,1.0869,1.0855,1.0852,1.0839,1.0836,1.081,1.0797,1.0797,1.0797,1.0783,1.0778,1.0775,1.077,1.0746,1.0738,1.0742,1.0729,1.0741,1.074,1.0738,1.0677,1.0673,1.0752,1.0752,1.0752,1.0752,1.0752,1.0752,1.091,1.092,1.0903,1.0908,1.0894,1.0893,1.0888,1.0879,1.0868,1.0865,1.0861,1.0845,1.0826,1.0817,1.0811,1.0804,1.0802,1.0819,1.0807,1.0751,1.0742,1.0733,1.0729,1.0819,1.0819,1.0868,1.0868,1.0868]}]]